sat.trackr.live / text

‹ back to catalog

STARLINK-5471

NORAD 54766 · 2022-175J

PAYLOAD ACTIVE UNKNOWN

§ Identity

Operator
Country
US
Launch date
2022-12-17
Launch site
AFETR
Launch vehicle
Mass (kg)
RCS (m²)

Purposes: comms

External: N2YO · Heavens-Above · Gunter

§ Orbital elements

Epoch: 2026-05-25T00:40:45.374016Z

Period
95.44 min
Inclination
53.2148°
Eccentricity
0.0001159
Mean motion
15.08843073 rev/d
Perigee alt
538.9 km
Apogee alt
540.5 km
Semi-major
6,917.9 km
B*
-1.0327e-4
RAAN
61.4162°
Arg perigee
94.5741°
Mean anomaly
265.5384°
Rev number
19,144

§ Raw data

STARLINK-54711 54766U 22175J   26145.02830294 -.00001931  00000+0 -10327-3 0  99922 54766  53.2148  61.4162 0001159  94.5741 265.5384 15.08843073191440

JSON: /api/v1/satellites/54766 · /tle

For live sub-satellite position, see the globe view (requires WebGL).

§ Visibility from observer

Set your observer location to see the next 7 days of passes ≥ 10°. The values pass through the URL so the page stays shareable.

No JS? Fill the form by hand. The geolocation button needs JavaScript.